sat.trackr.live / text

‹ back to catalog

STARLINK-3953

NORAD 52559 · 2022-051AC

PAYLOAD ACTIVE UNKNOWN

§ Identity

Operator
Country
US
Launch date
2022-05-13
Launch site
AFWTR
Launch vehicle
Mass (kg)
RCS (m²)

Purposes: comms

External: N2YO · Heavens-Above · Gunter

§ Orbital elements

Epoch: 2026-09-19T19:16:33.015360Z

Period
93.79 min
Inclination
53.1625°
Eccentricity
0.0001662
Mean motion
15.35385465 rev/d
Perigee alt
458.6 km
Apogee alt
460.9 km
Semi-major
6,837.9 km
B*
-2.2647e-6
RAAN
320.8245°
Arg perigee
79.2966°
Mean anomaly
280.8224°
Rev number
24,097

§ Raw data

STARLINK-39531 52559U 22051AC  26262.80315990 -.00000460  00000+0 -22647-5 0  99962 52559  53.1625 320.8245 0001662  79.2966 280.8224 15.35385465240971

JSON: /api/v1/satellites/52559 · /tle

For live sub-satellite position, see the globe view (requires WebGL).

§ Visibility from observer

Set your observer location to see the next 7 days of passes ≥ 10°. The values pass through the URL so the page stays shareable.

No JS? Fill the form by hand. The geolocation button needs JavaScript.